IW0DNR Weather Reports


time (UTC)temp
C
wind
direction
speed
KPH
gust
KPH
rain 1hr
cm
rain 24hr
cm
rain mn
cm
humidity
%
barometer
mb
20260504044523 12 30 0.0 0.0 0.00 0.00 0.00 87 1018.5
20260504043022 12 360 0.0 1.6 0.00 0.00 0.00 87 1018.3
20260504041520 12 360 0.0 1.6 0.00 0.00 0.00 86 1018.3
20260504040019 12 360 0.0 3.2 0.00 0.00 0.00 86 1018.2
20260504034518 12 360 0.0 0.0 0.00 0.00 0.00 85 1018.1
20260504033017 12 360 0.0 0.0 0.00 0.00 0.00 84 1018.2
20260504031516 12 360 0.0 0.0 0.00 0.00 0.00 84 1018.1
20260504030015 12 360 0.0 1.6 0.00 0.00 0.00 84 1018.0
20260504024512 13 360 0.0 3.2 0.00 0.00 0.00 83 1018.1
20260504023012 13 360 0.0 3.2 0.00 0.00 0.00 83 1018.1
20260504021510 13 360 1.6 4.8 0.00 0.00 0.00 84 1018.2
20260504020012 13 360 0.0 4.8 0.00 0.00 0.00 85 1018.2
20260504014508 13 360 0.0 3.2 0.00 0.00 0.00 85 1018.1
20260504013012 13 360 0.0 1.6 0.00 0.00 0.00 84 1018.1
20260504011506 13 360 0.0 0.0 0.00 0.00 0.00 84 1018.1
20260504010005 13 360 0.0 0.0 0.00 0.00 0.00 84 1018.1
20260504004506 13 360 0.0 1.6 0.00 0.00 0.00 85 1018.1
20260504003004 13 360 0.0 1.6 0.00 0.00 0.00 85 1018.1
20260504001502 13 360 0.0 1.6 0.00 0.00 0.00 85 1018.2
20260504000001 13 360 0.0 0.0 0.00 0.00 0.00 85 1018.2
20260503234559 14 360 0.0 0.0 0.00 0.00 0.00 85 1018.2
20260503233103 14 360 0.0 1.6 0.00 0.00 0.00 85 1018.2
20260503231557 14 360 0.0 3.2 0.00 0.00 0.00 84 1018.2
20260503230058 15 360 0.0 1.6 0.00 0.00 0.00 84 1018.5
20260503224554 15 360 0.0 1.6 0.00 0.00 0.00 84 1018.5
20260503223053 15 360 0.0 3.2 0.00 0.00 0.00 84 1018.4
20260503221558 15 360 0.0 3.2 0.00 0.00 0.00 84 1018.3
20260503220100 15 360 0.0 3.2 0.00 0.00 0.00 83 1018.2
20260503214551 15 360 0.0 6.4 0.00 0.00 0.00 83 1018.1
20260503213049 15 360 0.0 4.8 0.00 0.00 0.00 84 1018.0
20260503211547 15 360 0.0 4.8 0.00 0.00 0.00 84 1018.1
20260503210053 15 360 1.6 4.8 0.00 0.00 0.00 83 1018.0
20260503204558 15 360 0.0 4.8 0.00 0.00 0.00 83 1018.0
20260503203046 15 360 0.0 4.8 0.00 0.00 0.00 83 1017.9
20260503201544 15 360 0.0 1.6 0.00 0.00 0.00 83 1017.9
20260503200046 15 360 0.0 3.2 0.00 0.00 0.00 83 1017.9
20260503194550 15 360 0.0 3.2 0.00 0.00 0.00 82 1017.9
20260503193043 16 360 0.0 0.0 0.00 0.00 0.00 80 1017.9
20260503191543 16 360 0.0 1.6 0.00 0.00 0.00 80 1017.5
20260503190046 16 360 0.0 3.2 0.00 0.00 0.00 79 1017.5
20260503184540 16 360 0.0 1.6 0.00 0.00 0.00 78 1017.4
20260503183042 17 360 0.0 4.8 0.00 0.00 0.00 77 1017.2
20260503181538 17 360 1.6 4.8 0.00 0.00 0.00 74 1017.2
20260503180037 17 360 0.0 3.2 0.00 0.00 0.00 72 1017.0
20260503174535 18 360 0.0 3.2 0.00 0.00 0.00 70 1016.8
20260503173056 19 360 1.6 4.8 0.00 0.00 0.00 67 1016.7
20260503171535 20 114 1.6 6.4 0.00 0.00 0.00 63 1016.7
20260503081551 17 261 4.8 12.9 0.00 0.00 0.00 59 1019.7
20260503071541 16 205 1.6 6.4 0.00 0.00 0.00 61 1020.0
20260503054626 13 360 0.0 3.2 0.00 0.00 0.00 69 1020.0
20260503053026 12 15 0.0 3.2 0.00 0.00 0.00 69 1020.0